User: anonymous   Login
Location: Unspecified
(0.0000°N, 0.0000°E)
Time: 20:47:15
(UTC+00:00)
Language:

ERS-1 - Orbit

View from above orbital plane
View from above orbital plane
View from above satellite
View from above satellite

Ground track
Ground track

The orbit is defined by the following mean orbital elements,

1 21574U          26150.50985735 +.00000000 +00000-0 +16174-3 0 00000
2 21574  98.7801 170.7753 0031096 321.2566  38.6391 14.39505996    09
Epoch (UTC): 30 May 2026 12:14:11
Eccentricity: 0.0031096
inclination: 98.7801°
perigee height: 738 km
apogee height: 782 km
right ascension of ascending node: 170.7753°
argument of perigee: 321.2566°
revolutions per day: 14.39505996
mean anomaly at epoch: 38.6391°

The dashed part of the orbit path shows where the satellite is in the earth's shadow,  

DLR